Location: Home
(42.5358°N, 72.7383°W)
Time: 18:36:22
(UTC-05:00)

SR - Pass Details

Date: 15 December 2021
Orbit: 582 x 872 km, 66.7° (Epoch: 20 January)

Event Time Altitude Azimuth Distance (km) Brightness Sun altitude
Exits shadow 04:16:03 23° 50° (NE) 1,334 ? -31.8°
Drops below altitude 10° 04:19:35 10° 101° (E) 2,038 ? -31.1°
Sets 04:22:22 0° 116° (ESE) 2,996 ? -30.6°
